Location: Chiroubles
(46.1812°N, 4.6660°E)
Time: 03:38:11
(UTC+00:00)

Explorer 7 - Pass Details

Date: 28 November 2020
Orbit: 484 x 678 km, 50.3° (Epoch: 25 January)

Event Time Altitude Azimuth Distance (km) Brightness Sun altitude
Exits shadow 06:13:43 10° 294° (WNW) 1,821 8.8 -8.0°
Maximum altitude 06:17:49 68° 18° (NNE) 574 6.9 -7.4°
Drops below altitude 10° 06:21:44 10° 102° (ESE) 1,728 11.0 -6.7°
Sets 06:23:52 0° 105° (ESE) 2,589 12.5 -6.4°
